Погода в Смоленске

Погода в Смоленске : погода сейчас, прогноз погоды и архив. Всё, что Вы хотите узнать о погоде в Смоленске!

Хотите узнать прогноз погоды в Смоленске? Тогда Вам сюда: Погода в Смоленске

Поиск расширенной информации на нашем сайте:

Полезная информация:

Другие новости

Новости СМИ2

Главная страница сайта

Новости сайта

03.07.2017

Напоминаем, что на нашем специализированном сайте Метеоцентр.Азия вы можете получить высокодетализированные автоматические прогнозы погоды по пунктам России, СНГ и мира в авиационном формате (включающие направление и скорость ветра, видимость, явления погоды, количество и форму облачности, нижнюю и верхнюю границу облачности).

Рекомендуем:

Погода в Смоленске - сегодня

Время (UTC), дата Ветер
(°,м/с) 
Видим.   Явления Облачность Т
(°С)
Тd
(°С)
f(%) Тe
(°С)
Pmin
(гПа)
dP
(гПа)
Po
(мм)
O2
(г/м3)
Тmin Tmax R s Состояние
почвы
03 16.07.19 110 (В) 1000 м  дымка  10/10 100 м 
[St]
+11 +10.3 95 +14  1010.6  -0.4  737  283  +9.5         
06 16.07.19 090 (В) 1000 м  слаб. дождь{туман}  10/10 300 м 
[Ns]
+13.3 +12.6 96 +20  1010.4  0.1  737  280  +9.5    0.0    влажная 
09 16.07.19 090 (В) 10 км  {дождь}  9/6 300 м кучево-дожд., верхняя 
[Cb calv|Ci fib]
+17.4 +12.5 73 +23  1009.5  -0.5  736  276           
12 16.07.19 110 (В) 10 км  {дождь}  8/5 1000 м верхняя 
[Cu hum|Ci fib]
+19.4 +9.6 53 +21  1008.2  -1.1  735  275           
15 16.07.19 090 (В) 10 км    6/6 1000 м 
[Cu hum]
+19.2 +10.4 57 +22  1007.7  -0.5  735  275      0.0     
18 16.07.19 тихо ()   10 км    5/5 600 м 
[Sc diur, vesp]
+13.4 +11.4 88 +17  1008.1  -0.1  735  280    +20.3  0.0     
21 16.07.19 тихо ()   10 км    8/0 верхняя 
[Ci fib]
+11.2 +10.2 94 +13  1007.9  -0.4  735  282           
00 17.07.19 110 (В) 4000 м  дымка  8/0 верхняя 
[Ci fib]
+10.6 +9.9 95 +13  1007.3  -0.6  734  283           
03 17.07.19 100 (В) 4000 м  дымка  9/4 1000 м верхняя 
[Sc|Ci]
+11.3 +10.5 95 +14  1006.8  -0.5  734  282  +10.3         
06 17.07.19 260 (З) 10 км  в посл. час ливневой дождь  10/10 300 м кучево-дожд. 
[Cb cap]
+13.9 +11.7 87 +19  1006.6  734  279  +10.3    0.0    влажная 
09 17.07.19 310 (СЗ) 10 км  {ливн. осадки}  10/10 300 м кучево-дожд. 
[Cb cap]
+14.6 +12.3 86 +21  1006.5  734  278           
12 17.07.19 040 (СВ) 4000 м  слаб. ливневой дождь  10/10 300 м кучево-дожд. 
[Cb cap]
+15 +13.7 92 +23  1005.9  -0.6  733  277           
15 17.07.19 080 (В) 10 км  в посл. час ливневой дождь  10/5 300 м кучево-дожд., средняя 
[Cb cap|Ac trans]
+15.1 +13.4 90 +23  1005.5  -0.4  733  277         
18 17.07.19 тихо ()   10 км  {ливн. осадки}  9/0 средняя, верхняя 
[Ac trans|Ci]
+13.3 +12.3 94 +18  1005.6  0.1  733  279    +17.8     
21 17.07.19 тихо ()   4000 м  дымка  10/0 средняя 
[Ac trans]
+12.7 +11.9 95 +17  1005.5  0.1  733  280           
00 18.07.19 тихо ()   4000 м  местами туман поземный  9/0 средняя, верхняя 
[Ac trans|Ci sp]
+11.6 +10.9 95 +14  1004.9  -0.7  732  281           
03 18.07.19 тихо ()   0200 м  туман  ?/?  
+12.4 +11.7 95 +16  1004.6  -0.2  732  280  +10.2         
06 18.07.19 280 (З) 4000 м  дымка{туман}  9/6 300 м кучево-дожд., верхняя 
[Cb cap|Ci fib]
+15.3 +14 92 +24  1003.9  -0.4  732  276  +10.2        влажная 
09 18.07.19 270 (З) 10 км  {ливн. осадки}  9/8 300 м кучево-дожд., верхняя 
[Cb cap|Ci fib]
+15.8 +12.2 79 +22  1003.7  -0.1  732  276           
12 18.07.19 230 (ЮЗ) 4000 м  слаб. ливневой дождь  10/10 300 м кучево-дожд. 
[Cb cap]
+14.6 +10.9 78 +19  1004  0.1  732  278           
15 18.07.19 230 (ЮЗ) 10 км  в посл. час ливневой дождь  10/10 300 м кучево-дожд. 
[Cb cap]
+14.2 +12.8 91 +21  1003.1  -0.9  731  278         
18 18.07.19 260 (З) 4000 м  слаб. ливневой дождь  10/10 300 м кучево-дожд. 
[Cb cap]
+13.7 +12.6 93 +19  1003.4  0.2  731  278    +16.1     
21 18.07.19 270 (З) 10 км  в посл. час ливневой дождь  10/10 300 м кучево-дожд. 
[Cb cap]
+13.3 +12.4 94 +20  1003.4  731  279           
00 19.07.19 280 (З) 4000 м  слаб. ливневой дождь  10/10 300 м кучево-дожд. 
[Cb cap]
+13.5 +12.6 94 +19  1004.5  1.1  732  279           
03 19.07.19 260 (З) 2000 м  слаб. ливневой дождь  10/10 300 м кучево-дожд. 
[Cb cap]
+13.7 +12.7 94 +20  1005.4  0.8  733  279  +13.2       
Время (UTC), дата Ветер
(°,м/с) 
Видим.   Явления Облачность Т
(°С)
Тd
(°С)
f(%) Тe
(°С)
Pmin
(гПа)
dP
(гПа)
Po
(мм)
O2
(г/м3)
Тmin Tmax R s Состояние
почвы

Для получения пояснительной информации подведите курсор к названию столбца.

ПОГОДА в Смоленске - архив

Всё, что Вы хотите узнать о погоде в Смоленске - удобно и подробно!

Выберите нужную дату (начиная с 1 января 2018* года) и нажмите кнопку "Найти".
Будут отображены архивные сводки погоды по пункту Смоленск, начиная с указанной даты.


Отображать данные в формате CSV (для использования в таблицах Excel)


Внимание! Наш архив погоды предназначен исключительно для личного некоммерческого использования в познавательных целях. Если Вам необходимы официальные справки о состоянии погоды (для производственных, юридических, коммерческих и т.п. целей), обращайтесь в органы Росгидромета.

*Примечание: данная дата относится к архиву по метеостанциям СССР (Россия, СНГ, Балтия).
Архив по метеостанциям Зарубежной Европы и Азии (кроме Китая) хранится 10 дней, по другим регионам земного шара (Китай, Африка, Америка, Австралия, Океания) - 1 день.

Смоленск - район местоположения метеостанции


Название, широта, долгота, высота метеостанции:
Смоленск 54.8°ш. 32.1°д. 239 м над ур. моря [Российская Федерация]

Дополнительная информация

В oтличие oт бoльшинства пoгoдных сайтoв мы публикуем пoдрoбную метеoинфoрмацию в детальнoм прoфессиoнальнoм фoрмате.

Характеристики температуры и влажнoсти вoздуха измеряются на высoте 2 м в тени вдали oт зданий и деревьев.
Скoрoсть ветра измеряется на высoте 10 м (на урoвне рoста челoвека скoрoсть ветра ниже в 1.5-2 раза). Если метеoстанция нахoдится в гoрoде или в лесу, тo скoрoсть ветра занижена на 2-4 м/с пo сравнению с oткрытым местoм. Скoрoсть ветра над акватoриями крупных рек и oзёр, а также на вершинах хoлмoв на 2-5 м/с выше, чем в oбычных услoвиях.
Атмoсфернoе давление в разных тoчках местнoсти мoжет значительнo oтличаться oт давления на метеoстанции, в зависимoсти oт услoвий рельефа (при пoдъёме на 10 м давление пoнижается примернo на 1 мм рт.ст.).